Fairbanks Eiels, AK

8:10 PM AKDT on June 25, 2017 (GMT -0800)
Eielson Air Force Base

Weather History for PAEI - February, 2014

Change the Weather History Date:

Thursday, February 20, 2014

  Actual Average Record
Temperature  
Mean Temperature -17 °F -  
Max Temperature -9 °F 3 °F 42 °F (2008)
Min Temperature -25 °F -17 °F -49 °F (1956)
Degree Days  
Heating Degree Days 82    
Moisture  
Dew Point -24 °F    
Average Humidity 75    
Maximum Humidity 83    
Minimum Humidity 71    
Precipitation  
Precipitation 0.00 in - - ()
Sea Level Pressure  
Sea Level Pressure 30.16 in    
Wind  
Wind Speed 2 mph (SSE)    
Max Wind Speed 5 mph    
Max Gust Speed -    
Visibility 10 miles    
Events      
Averages and records for this station are not official NWS values.
T = Trace of Precipitation, MM = Missing Value Source: NWS Daily Summary

Daily Weather History Graph

Daily Weather History Graph

Search for Another Location

Airport or City:

Trip Planner

Search our weather history database for the weather conditions in past years. The results will help you decide how hot, cold, wet, or windy it might be!

Date:

Astronomy

Feb. 20, 2014 Rise Set
Actual Time 8:28 AM AKST 5:37 PM AKST
Civil Twilight 7:37 AM AKST 6:28 PM AKST
Nautical Twilight 6:40 AM AKST 7:24 PM AKST
Astronomical Twilight 5:44 AM AKST 8:21 PM AKST
Moon 12:43 AM AKST (2/20) 9:05 AM AKST (2/20)
Length of Visible Light 10h 50m
Length of Day
9h 09m
Waning Gibbous, 69% of the Moon is Illuminated
Feb 20
Waning Gibbous
Feb 22
Last Quarter
Feb 28
New
Mar 8
First Quarter
Mar 16
Full

Hourly Weather History & Observations

Time (AKST) Temp. Windchill Dew Point Humidity Pressure Visibility Wind Dir Wind Speed Gust Speed Precip Events Conditions
12:58 AM -17.3 °F -27.6 °F -23.3 °F 74% 29.98 in 10.0 mi Variable 3.5 mph - N/A   Clear
1:58 AM -22.4 °F -36.0 °F -28.7 °F 72% 30.01 in 10.0 mi South 4.6 mph - N/A   Clear
2:58 AM -22.2 °F -33.2 °F -28.3 °F 73% 30.03 in 10.0 mi Variable 3.5 mph - N/A   Clear
3:58 AM -23.3 °F -34.4 °F -29.4 °F 73% 30.05 in 10.0 mi SSE 3.5 mph - 0.00 in   Clear
4:58 AM -25.4 °F -39.6 °F -29.9 °F 79% 30.07 in 10.0 mi Variable 4.6 mph - N/A   Clear
5:58 AM -25.2 °F -36.7 °F -29.9 °F 79% 30.09 in 1.8 mi SSE 3.5 mph - N/A   Haze
6:13 AM -25.6 °F -37.1 °F -29.2 °F 83% 30.03 in 10.0 mi Variable 3.5 mph - N/A   Clear
6:58 AM -25.4 °F -39.6 °F -29.9 °F 79% 30.11 in 10.0 mi SSE 4.6 mph - N/A   Clear
7:58 AM -21.3 °F -34.7 °F -27.4 °F 73% 30.12 in 10.0 mi South 4.6 mph - N/A   Clear
8:58 AM -21.6 °F - -27.9 °F 73% 30.15 in 10.0 mi Calm Calm - N/A   Clear
9:58 AM -23.1 °F - -29.6 °F 72% 30.17 in 10.0 mi Calm Calm - N/A   Clear
10:58 AM -24.0 °F - -29.9 °F 74% 30.19 in 10.0 mi Calm Calm - N/A   Clear
11:58 AM -19.5 °F - -25.6 °F 73% 30.21 in 10.0 mi Calm Calm - N/A   Clear
12:58 PM -15.3 °F - -21.1 °F 75% 30.20 in 10.0 mi Calm Calm - N/A   Clear
1:58 PM -11.2 °F - -17.5 °F 74% 30.22 in 10.0 mi Calm Calm - N/A   Clear
2:58 PM -9.4 °F - -16.6 °F 71% 30.21 in 10.0 mi Calm Calm - N/A   Clear
3:58 PM -9.8 °F - -16.8 °F 71% 30.22 in 10.0 mi Variable 2.3 mph - N/A   Clear
4:58 PM -11.7 °F - -17.3 °F 76% 30.24 in 10.0 mi Calm Calm - N/A   Mostly Cloudy
5:28 PM -13.0 °F - -18.4 °F 77% 30.16 in 10.0 mi Calm Calm - N/A   Scattered Clouds
5:43 PM -13.0 °F - -18.4 °F 77% 30.16 in 10.0 mi Calm Calm - N/A   Mostly Cloudy
5:58 PM -12.1 °F - -17.7 °F 76% 30.25 in 10.0 mi Calm Calm - N/A   Overcast
6:13 PM -13.0 °F - -18.4 °F 77% 30.16 in 10.0 mi North 1.2 mph - N/A   Scattered Clouds
6:58 PM -13.7 °F - -19.3 °F 76% 30.25 in 10.0 mi Calm Calm - N/A   Clear
7:58 PM -16.8 °F - -22.0 °F 77% 30.26 in 10.0 mi Calm Calm - N/A   Clear
8:58 PM -17.3 °F - -23.1 °F 75% 30.26 in 10.0 mi Variable 2.3 mph - N/A   Clear
9:58 PM -18.2 °F - -24.2 °F 74% 30.27 in 10.0 mi Calm Calm - N/A   Clear
10:58 PM -20.0 °F - -26.1 °F 73% 30.27 in 10.0 mi Calm Calm - N/A   Clear
11:58 PM -21.5 °F - -27.6 °F 73% 30.28 in 10.0 mi Calm Calm - N/A   Clear